Location: Unspecified
(0.0000°N, 0.0000°E)
Time: 17:28:17
(UTC+02:00)

Ariane H10 - Visible Passes

Search period start: 17 April 2014 00:00
Search period end: 27 April 2014 00:00
Orbit: 395 x 35152 km, 4.2° (Epoch: 17 April)

Date Brightness Start Highest point End Pass type
(mag) Time Alt. Az. Time Alt. Az. Time Alt. Az.
17 Apr 7.6 00:00:00 80° ENE 06:18:05 89° S 06:41:36 10° E visible
17 Apr 5.6 17:27:53 10° W 17:34:27 89° S 03:08:01 10° E visible
19 Apr 9.1 01:21:34 10° W 02:53:23 31° W 06:40:51 10° W visible
19 Apr 6.9 21:34:20 10° W 07:06:37 87° S 07:22:03 10° E visible
20 Apr 6.2 18:07:43 10° W 18:16:45 88° N 03:52:04 10° E visible
21 Apr 9.4 21:26:22 10° E 22:37:46 14° E 23:27:23 10° E visible
22 Apr 9.4 02:21:46 10° W 03:32:58 19° W 05:40:40 10° W visible
22 Apr 6.2 22:16:17 10° W 07:51:12 83° S 08:01:55 10° E visible
23 Apr 6.8 18:47:28 10° W 19:00:16 86° N 04:34:22 10° E visible
24 Apr 9.0 20:17:02 10° E 23:16:45 26° E 00:40:21 10° E visible
25 Apr 5.5 22:59:08 10° W 08:33:36 79° S 08:41:20 10° E visible
26 Apr 7.5 19:27:12 10° W 19:46:08 85° N 00:00:00 74° ENE visible
